Location: Weatherford
(35.5260°N, 98.7070°W)
Time: 21:50:54
(UTC-05:00)

OPAL - Visible Passes

Search period start: 15 September 2014 00:00
Search period end: 25 September 2014 00:00
Orbit: 745 x 796 km, 100.2° (Epoch: 15 September)

Date Brightness Start Highest point End Pass type
(mag) Time Alt. Az. Time Alt. Az. Time Alt. Az.
15 Sep 10.6 03:56:43 10° ENE 03:58:12 11° ENE 03:59:42 10° NE visible
15 Sep 7.4 05:31:10 10° SSE 05:36:19 84° WSW 05:41:32 10° NNW visible
16 Sep 8.6 04:56:22 10° SE 05:01:13 43° ENE 05:06:08 10° N visible
16 Sep 8.8 06:36:34 10° SW 06:40:14 20° W 06:43:57 10° NW visible
17 Sep 9.9 04:22:37 10° ESE 04:26:19 20° ENE 04:30:04 10° NNE visible
17 Sep 7.8 05:59:56 10° S 06:04:50 45° W 06:09:48 10° NNW visible
18 Sep 7.6 05:24:27 10° SSE 05:29:36 80° ENE 05:34:50 10° NNW visible
19 Sep 9.0 04:49:53 10° SE 04:54:33 36° ENE 04:59:17 10° N visible
19 Sep 8.5 06:29:19 10° SSW 06:33:27 24° W 06:37:38 10° NW visible
20 Sep 10.2 04:16:29 10° E 04:19:42 17° ENE 04:22:56 10° NNE visible
20 Sep 7.6 05:53:02 10° S 05:58:05 55° WSW 06:03:12 10° NNW visible
21 Sep 7.9 05:17:47 10° SSE 05:22:54 65° ENE 05:28:04 10° N visible
22 Sep 9.4 04:43:28 10° SE 04:47:54 29° ENE 04:52:22 10° N visible
22 Sep 8.3 06:22:10 10° SSW 06:26:39 30° W 06:31:12 10° NW visible
23 Sep 10.4 04:10:33 10° E 04:13:06 14° ENE 04:15:39 10° NNE visible
23 Sep 7.4 05:46:12 10° S 05:51:20 69° WSW 05:56:33 10° NNW visible
24 Sep 8.3 05:11:11 10° SSE 05:16:12 53° ENE 05:21:17 10° N visible
24 Sep 9.0 06:52:12 10° SW 06:55:20 16° W 06:58:30 10° WNW visible
